[[{"header":{"parameterUnit":"m.s-1","parameterCategory":1,"la1":30.2991,"la2":30.254,"lo1":-89.0895,"lo2":-89.0444,"dy":0.0017,"dx":0.0017,"nx":28,"ny":28,"refTime":"2025-07-03T21:00:00:Z","depth":0,"parameterNumber":2,"parameterNumberName":"U-component_of_WINDS"},"data":[0,0,0,0,0,0,0,0,0,0,0,0,0,0,0,0,0,0,0,0,0,0,0,0,0,0,0,0,0,0,0,0,0,0,0,0,0,0,0,0,0,0,0,0,0,0,0,0,0,0,0,0,0,0,0,0,0,0,0.8212,0.8211,0,0.8158,0.8157,0.8157,0.8102,0.8101,0.81,0.8099,0.8042,0.8041,0.804,0,0,0,0,0,0,0,0,0,0,0,0,0,0.8265,0.8265,0.8212,0.8211,0.821,0.8158,0.8157,0.8156,0.8102,0.8101,0.81,0.8099,0.8042,0.8041,0.804,0,0,0,0,0,0,0,0,0,0,0,0,0,0.823,0.8264,0.8212,0.8177,0.8173,0.8158,0.8157,0.8156,0.8102,0.8101,0.81,0.8099,0.8042,0.8041,0.804,0.8054,0,0,0.8036,0.8035,0,0,0,0,0,0,0,0,0.8232,0.8228,0.8183,0.8179,0.8175,0.8135,0.8155,0.8122,0.8102,0.8129,0.8099,0.8098,0.8074,0.807,0.8062,0.8052,0.8049,0.8036,0.8035,0.8035,0.8034,0,0,0,0,0,0,0,0.8234,0.823,0.819,0.8182,0.8177,0.8163,0.8157,0.8148,0.8108,0.8126,0.8122,0.8117,0.8071,0.8063,0.806,0.8048,0.8036,0.8035,0.8034,0.8033,0.8048,0.8049,0,0,0,0,0,0,0.8242,0.8232,0.8192,0.8189,0.8201,0.8163,0.8156,0.8149,0.8108,0.8101,0.8118,0.8114,0.8066,0.8062,0.8058,0.8073,0.8035,0.8033,0.8033,0.8047,0.8048,0.805,0,0,0,0,0,0,0.8244,0.8239,0.8194,0.8209,0.8203,0.8163,0.8156,0.8149,0.8141,0.8102,0.8094,0.8117,0.8065,0.806,0.8056,0.807,0.8033,0.8032,0.8046,0.8047,0.8049,0.8103,0,0,0,0,0,0,0.8246,0.824,0.8246,0.821,0.8202,0.8194,0.8157,0.8148,0.8139,0.8134,0.8099,0.8092,0.8064,0.8058,0.8055,0.8068,0.8031,0.8044,0.8046,0.8048,0.81,0.8106,0.8112,0,0,0,0,0,0.8248,0.8262,0.8246,0.8242,0.8208,0.8195,0.819,0.8158,0.814,0.8145,0.812,0.8093,0.8069,0.8058,0.8054,0.8067,0.8043,0.8046,0.8048,0.8097,0.8105,0.8112,0,0,0,0,0,0,0.8299,0.8257,0.8239,0.8242,0.8223,0.8186,0.8191,0.8167,0.8152,0.8148,0.8108,0.81,0.8101,0.8083,0.8072,0.8079,0.8052,0.8054,0.8091,0.8098,0.8104,0.8108,0.803,0,0,0,0,0,0.8311,0.8305,0.8267,0.8274,0.8265,0.823,0.8223,0.82,0.8178,0.8169,0.8144,0.8123,0.8111,0.8103,0.809,0.8097,0.8089,0.8103,0.811,0.8115,0.8117,0.812,0.8126,0.8058,0.8058,0.8058,0,0,0.8335,0.8311,0.8309,0.8284,0.8266,0.826,0.8223,0.8218,0.8213,0.8168,0.8163,0.8144,0.8118,0.812,0.812,0.8105,0.8134,0.8118,0.8122,0.8122,0.8123,0.813,0.8136,0.806,0.806,0.8059,0,0,0.8376,0.8357,0.8361,0.8345,0.8319,0.8295,0.8297,0.8263,0.8249,0.8244,0.8211,0.8204,0.8184,0.8167,0.8156,0.8192,0.8167,0.8189,0.822,0.8224,0.823,0.8234,0.8248,0.8253,0.8191,0.8191,0.8191,0,0.8409,0.8399,0.8366,0.8363,0.8353,0.8314,0.8317,0.8302,0.8273,0.8267,0.8252,0.8226,0.8206,0.8204,0.8213,0.8205,0.8205,0.8192,0.8232,0.8236,0.824,0.8252,0.8257,0.8194,0.8194,0.8193,0.8193,0,0.8442,0.8435,0.8441,0.8416,0.8406,0.8407,0.8373,0.8368,0.8346,0.8324,0.832,0.8295,0.8276,0.8274,0.8252,0.8269,0.8261,0.8239,0.8211,0.825,0.8261,0.8265,0.8198,0.8197,0.8196,0.8195,0,0,0.8513,0.847,0.8473,0.8461,0.843,0.8424,0.8423,0.8406,0.8402,0.8384,0.8382,0.8366,0.8347,0.8334,0.831,0.8313,0.8345,0.8291,0.829,0.8302,0.8363,0.838,0.8386,0.8328,0.8329,0.8329,0.8365,0,0.8549,0.8545,0.8516,0.8521,0.8515,0.8478,0.8477,0.8458,0.8438,0.8429,0.8406,0.8397,0.8371,0.8363,0.8365,0.8341,0.8356,0.8337,0.8325,0.8325,0.8334,0.8392,0.8409,0.8445,0.8369,0.837,0.8371,0,0.859,0.8576,0.858,0.8551,0.8547,0.8547,0.8529,0.8522,0.85,0.8485,0.8472,0.8445,0.8442,0.8416,0.8411,0.8399,0.8393,0.838,0.8381,0.8378,0.8351,0.8391,0.8455,0.8461,0.8377,0.8376,0.8376,0,0.8642,0.8624,0.8625,0.8616,0.8581,0.8582,0.8567,0.8544,0.8536,0.8521,0.8515,0.8499,0.849,0.8478,0.8448,0.8432,0.8447,0.8418,0.8434,0.8435,0.8439,0.8439,0.8503,0.8434,0.8434,0.8434,0.8434,0,0.8686,0.869,0.8648,0.8648,0.8653,0.8619,0.8623,0.8605,0.8585,0.8581,0.8548,0.8545,0.8505,0.8497,0.8474,0.8474,0.847,0.8457,0.8451,0.8461,0.8462,0.8456,0.8453,0.8436,0.8435,0.8435,0.8435,0,0.8745,0.8717,0.8715,0.8683,0.8675,0.868,0.8652,0.8651,0.8629,0.8625,0.8622,0.8588,0.8577,0.8546,0.8527,0.8511,0.8518,0.8506,0.8526,0.8523,0.8541,0.854,0.8603,0.861,0.8536,0.8537,0.8538,0,0.8775,0.8778,0.8746,0.8742,0.8729,0.8722,0.8715,0.8681,0.8674,0.865,0.8652,0.8639,0.8627,0.8612,0.8585,0.8571,0.8559,0.8582,0.8556,0.8566,0.856,0.856,0.8561,0.8587,0.8588,0.8589,0.859,0,0.8831,0.8817,0.8808,0.8794,0.8786,0.8773,0.8758,0.8756,0.8719,0.8713,0.8702,0.8693,0.8675,0.8663,0.8644,0.8628,0.8603,0.8598,0.8601,0.8611,0.8623,0.8618,0.8542,0.8597,0.8596,0.8596,0.8595,0.8595,0.8877,0.8878,0.8857,0.8847,0.8833,0.882,0.8818,0.8797,0.8788,0.8771,0.8752,0.8744,0.8723,0.8696,0.8682,0.8675,0.8661,0.8666,0.8667,0.8669,0.8674,0.8624,0.8671,0.8671,0.8671,0.8671,0.8671,0,0.8932,0.8917,0.8908,0.8889,0.8882,0.886,0.8843,0.8838,0.8832,0.8814,0.8804,0.8792,0.8781,0.8754,0.8739,0.8739,0.8727,0.8737,0.8736,0.8733,0.8686,0.8685,0.8747,0.8747,0.8747,0.8747,0.8747,0.8747,0.896,0.8961,0.8945,0.8939,0.8924,0.8917,0.8909,0.8897,0.8883,0.8872,0.8863,0.8845,0.8824,0.8808,0.8797,0.8789,0.8786,0.8799,0.8788,0.8744,0.8737,0.873,0.8729,0.8798,0.8798,0.8835,0.8836,0.8836]},{"header":{"parameterUnit":"m.s-1","parameterCategory":1,"la1":30.2991,"la2":30.254,"lo1":-89.0895,"lo2":-89.0444,"dy":0.0017,"dx":0.0017,"nx":28,"ny":28,"refTime":"2025-07-03T21:00:00:Z","depth":0,"parameterNumber":3,"parameterNumberName":"V-component_of_WINDS"},"data":[0,0,0,0,0,0,0,0,0,0,0,0,0,0,0,0,0,0,0,0,0,0,0,0,0,0,0,0,0,0,0,0,0,0,0,0,0,0,0,0,0,0,0,0,0,0,0,0,0,0,0,0,0,0,0,0,0,0,-2.913,-2.9131,0,-2.9235,-2.9236,-2.9237,-2.9227,-2.9225,-2.9223,-2.9222,-2.9325,-2.9329,-2.9334,0,0,0,0,0,0,0,0,0,0,0,0,0,-2.8919,-2.8923,-2.913,-2.9131,-2.9133,-2.9235,-2.9236,-2.9237,-2.9227,-2.9225,-2.9223,-2.9221,-2.9324,-2.9329,-2.9334,0,0,0,0,0,0,0,0,0,0,0,0,0,-2.9016,-2.8924,-2.913,-2.914,-2.9142,-2.9234,-2.9236,-2.9238,-2.9227,-2.9225,-2.9223,-2.922,-2.9322,-2.9328,-2.9335,-2.9423,0,0,-2.9354,-2.9357,0,0,0,0,0,0,0,0,-2.901,-2.9023,-2.9137,-2.9139,-2.9142,-2.9215,-2.9199,-2.93,-2.9228,-2.9195,-2.9222,-2.9219,-2.929,-2.9299,-2.9324,-2.9428,-2.9432,-2.9355,-2.9359,-2.9361,-2.9363,0,0,0,0,0,0,0,-2.9003,-2.9019,-2.9171,-2.9139,-2.9142,-2.9138,-2.9149,-2.9218,-2.9255,-2.9198,-2.9197,-2.921,-2.9291,-2.9318,-2.9326,-2.9433,-2.9355,-2.936,-2.9364,-2.9367,-2.9615,-2.9618,0,0,0,0,0,0,-2.8995,-2.9013,-2.9168,-2.9175,-2.9069,-2.9144,-2.9157,-2.9194,-2.9254,-2.9261,-2.9212,-2.9209,-2.9308,-2.9319,-2.933,-2.9438,-2.9361,-2.9367,-2.9371,-2.9612,-2.9616,-2.9619,0,0,0,0,0,0,-2.899,-2.9009,-2.9164,-2.9094,-2.9113,-2.915,-2.9193,-2.9197,-2.9224,-2.9265,-2.9271,-2.9233,-2.9307,-2.9321,-2.94,-2.9441,-2.937,-2.9376,-2.9609,-2.9613,-2.9617,-2.9653,0,0,0,0,0,0,-2.8984,-2.9007,-2.9042,-2.9095,-2.9117,-2.9233,-2.9195,-2.9201,-2.9236,-2.9233,-2.9286,-2.9292,-2.9306,-2.9391,-2.9407,-2.9448,-2.9381,-2.9605,-2.9611,-2.9616,-2.9648,-2.9658,-2.9666,0,0,0,0,0,-2.8977,-2.9046,-2.9043,-2.9062,-2.9161,-2.9236,-2.9248,-2.9263,-2.9239,-2.9274,-2.93,-2.9291,-2.9434,-2.9399,-2.9417,-2.9461,-2.9603,-2.9609,-2.9615,-2.9644,-2.9656,-2.9666,0,0,0,0,0,0,-2.8995,-2.9054,-2.9051,-2.914,-2.9183,-2.9234,-2.9278,-2.9275,-2.9325,-2.932,-2.9336,-2.9348,-2.9428,-2.9452,-2.9412,-2.955,-2.9515,-2.9525,-2.9531,-2.9542,-2.9551,-2.9543,-2.9386,0,0,0,0,0,-2.901,-2.9067,-2.9114,-2.9188,-2.921,-2.924,-2.9273,-2.9282,-2.9326,-2.9344,-2.9376,-2.9419,-2.9474,-2.9509,-2.9562,-2.9652,-2.9663,-2.9691,-2.97,-2.9707,-2.9715,-2.9765,-2.9778,-2.9639,-2.9639,-2.9639,0,0,-2.9041,-2.908,-2.9114,-2.9193,-2.9227,-2.9285,-2.9256,-2.9318,-2.936,-2.9353,-2.943,-2.9455,-2.9504,-2.9589,-2.9628,-2.9612,-2.9756,-2.9715,-2.972,-2.9725,-2.9773,-2.9786,-2.9797,-2.9643,-2.9642,-2.9642,0,0,-2.9126,-2.9161,-2.9227,-2.9263,-2.9316,-2.9336,-2.9351,-2.9403,-2.942,-2.9498,-2.9494,-2.9544,-2.9638,-2.9673,-2.9704,-2.9804,-2.9797,-2.982,-2.9866,-2.9914,-2.9925,-2.9935,-2.9971,-2.9984,-2.9828,-2.9828,-2.9828,0,-2.9157,-2.9245,-2.9261,-2.9324,-2.9359,-2.9357,-2.9424,-2.9457,-2.9524,-2.9547,-2.9528,-2.9647,-2.968,-2.9773,-2.9798,-2.9822,-2.9841,-2.9814,-2.9923,-2.9933,-2.9942,-2.9976,-2.999,-2.9831,-2.9831,-2.983,-2.983,0,-2.928,-2.9341,-2.9388,-2.9455,-2.9495,-2.9559,-2.9584,-2.9623,-2.9628,-2.9649,-2.9729,-2.9768,-2.9829,-2.9852,-2.9856,-2.9947,-2.9935,-2.9919,-2.9885,-2.9957,-2.999,-3.0003,-2.9834,-2.9834,-2.9833,-2.9832,0,0,-2.9379,-2.9455,-2.9472,-2.9503,-2.9562,-2.9609,-2.9673,-2.9734,-2.9767,-2.9813,-2.9867,-2.9947,-2.9934,-2.9968,-2.9976,-3.0019,-3.0096,-2.9998,-3.0,-3.0015,-3.0198,-3.0209,-3.0224,-3.0092,-3.0095,-3.0097,-3.0194,0,-2.9471,-2.9586,-2.9603,-2.9704,-2.9761,-2.976,-2.9816,-2.9858,-2.988,-2.993,-2.9954,-3.0011,-2.9989,-3.0009,-3.0051,-3.0078,-3.0133,-3.0071,-3.0142,-3.0145,-3.013,-3.0241,-3.0253,-3.0343,-3.0207,-3.0209,-3.021,0,-2.9592,-2.9644,-2.9751,-2.9804,-2.9828,-2.9878,-2.9936,-2.9984,-3.0032,-3.0045,-3.0084,-3.0088,-3.0154,-3.0117,-3.0208,-3.0165,-3.0195,-3.0213,-3.0217,-3.0224,-3.0182,-3.0251,-3.0372,-3.0385,-3.023,-3.0229,-3.0227,0,-2.9654,-2.975,-2.9827,-2.9853,-2.9916,-2.9952,-2.9979,-3.0024,-3.006,-3.011,-3.0133,-3.019,-3.0221,-3.0264,-3.0283,-3.0254,-3.0373,-3.0337,-3.0385,-3.0385,-3.041,-3.0408,-3.0537,-3.0429,-3.0429,-3.0429,-3.0428,0,-2.9754,-2.982,-2.9856,-2.9904,-2.9977,-2.9996,-3.0068,-3.0094,-3.0135,-3.0186,-3.0189,-3.0237,-3.0259,-3.031,-3.0325,-3.0399,-3.0412,-3.0424,-3.0427,-3.0424,-3.0423,-3.0444,-3.0438,-3.0432,-3.0431,-3.0431,-3.043,0,-2.9836,-2.9863,-2.9947,-3.0,-3.0015,-3.0067,-3.0112,-3.0157,-3.0179,-3.0245,-3.0261,-3.0296,-3.0357,-3.038,-3.0454,-3.0464,-3.0548,-3.0546,-3.0533,-3.0534,-3.058,-3.0576,-3.0727,-3.0748,-3.0627,-3.0628,-3.0629,0,-2.9898,-2.9949,-3.0008,-3.0044,-3.0073,-3.013,-3.0167,-3.0187,-3.0226,-3.0284,-3.0323,-3.0384,-3.0434,-3.0531,-3.0562,-3.0619,-3.0618,-3.0667,-3.0626,-3.0622,-3.0619,-3.0616,-3.0621,-3.0675,-3.0676,-3.0677,-3.0678,0,-3.0005,-3.0016,-3.007,-3.013,-3.0174,-3.0222,-3.0267,-3.0296,-3.0323,-3.0366,-3.043,-3.0469,-3.0545,-3.0606,-3.0664,-3.0691,-3.0689,-3.0691,-3.0705,-3.0702,-3.0692,-3.0698,-3.0554,-3.0687,-3.0686,-3.0685,-3.0685,-3.0684,-3.0079,-3.0124,-3.0174,-3.0234,-3.0271,-3.0314,-3.036,-3.0389,-3.0442,-3.0507,-3.0516,-3.0584,-3.063,-3.0708,-3.0738,-3.0791,-3.0778,-3.0798,-3.0803,-3.0808,-3.0811,-3.0684,-3.0802,-3.0801,-3.0801,-3.0801,-3.0801,0,-3.0187,-3.0219,-3.0274,-3.0339,-3.0387,-3.0382,-3.0433,-3.0473,-3.0533,-3.0577,-3.0627,-3.07,-3.0759,-3.0795,-3.0854,-3.0889,-3.089,-3.0904,-3.0902,-3.0908,-3.082,-3.0802,-3.0903,-3.0903,-3.0903,-3.0903,-3.0903,-3.0903,-3.0248,-3.0325,-3.0342,-3.0438,-3.0469,-3.0537,-3.0566,-3.0606,-3.0641,-3.0723,-3.0773,-3.0797,-3.0838,-3.09,-3.0954,-3.0963,-3.0984,-3.1,-3.1008,-3.0925,-3.0914,-3.0904,-3.0887,-3.1005,-3.1005,-3.1092,-3.1093,-3.1093]}]]